Time,TemperatureF,DewpointF,PressureIn,WindDirection,WindDirectionDegrees,WindSpeedMPH,WindSpeedGustMPH,Humidity,HourlyPrecipIn,Conditions,Clouds,dailyrainin,SoftwareType,DateUTC
2013-07-27 00:00:00,63.0,-99.9,-100.00,North,-999,-999.0,-999.0,-999,0.00,,,0.00,,2013-07-27 04:00:00,
2013-07-27 00:43:00,63.0,-99.9,-100.00,North,-999,-999.0,-999.0,-999,0.00,,,0.00,,2013-07-27 04:43:00,
2013-07-27 00:53:00,63.0,-99.9,-100.00,North,-999,-999.0,-999.0,-999,0.00,,,0.00,,2013-07-27 04:53:00,
2013-07-27 01:00:00,62.0,-99.9,-100.00,North,-999,-999.0,-999.0,-999,0.00,,,0.00,,2013-07-27 05:00:00,
2013-07-27 01:43:00,62.0,-99.9,-100.00,North,-999,-999.0,-999.0,-999,0.00,,,0.00,,2013-07-27 05:43:00,
2013-07-27 01:52:00,62.0,-99.9,-100.00,North,-999,-999.0,-999.0,-999,0.00,,,0.00,,2013-07-27 05:52:00,
2013-07-27 02:00:00,61.0,-99.9,-100.00,North,-999,-999.0,-999.0,-999,0.00,,,0.00,,2013-07-27 06:00:00,
2013-07-27 02:52:00,61.0,-99.9,-100.00,North,-999,-999.0,-999.0,-999,0.00,,,0.00,,2013-07-27 06:52:00,
2013-07-27 03:00:00,60.0,-99.9,-100.00,North,-999,-999.0,-999.0,-999,0.00,,,0.00,,2013-07-27 07:00:00,
2013-07-27 03:44:00,60.0,-99.9,-100.00,North,-999,-999.0,-999.0,-999,0.00,,,0.00,,2013-07-27 07:44:00,
2013-07-27 03:53:00,60.0,-99.9,-100.00,North,-999,-999.0,-999.0,-999,0.00,,,0.00,,2013-07-27 07:53:00,
2013-07-27 04:00:00,60.0,-99.9,-100.00,North,-999,-999.0,-999.0,-999,0.00,,,0.00,,2013-07-27 08:00:00,
2013-07-27 04:43:00,60.0,-99.9,-100.00,North,-999,-999.0,-999.0,-999,0.00,,,0.00,,2013-07-27 08:43:00,
2013-07-27 04:53:00,60.0,-99.9,-100.00,North,-999,-999.0,-999.0,-999,0.00,,,0.00,,2013-07-27 08:53:00,
2013-07-27 05:00:00,60.0,-99.9,-100.00,North,-999,-999.0,-999.0,-999,0.00,,,0.00,,2013-07-27 09:00:00,
2013-07-27 05:44:00,60.0,-99.9,-100.00,North,-999,-999.0,-999.0,-999,0.00,,,0.00,,2013-07-27 09:44:00,
2013-07-27 05:52:00,60.0,-99.9,-100.00,North,-999,-999.0,-999.0,-999,0.00,,,0.00,,2013-07-27 09:52:00,
2013-07-27 06:00:00,60.0,-99.9,-100.00,North,-999,-999.0,-999.0,-999,0.00,,,0.00,,2013-07-27 10:00:00,
2013-07-27 06:52:00,60.0,-99.9,-100.00,North,-999,-999.0,-999.0,-999,0.00,,,0.00,,2013-07-27 10:52:00,
2013-07-27 07:00:00,61.0,-99.9,-100.00,North,-999,-999.0,-999.0,-999,0.00,,,0.00,,2013-07-27 11:00:00,
2013-07-27 07:44:00,61.0,-99.9,-100.00,North,-999,-999.0,-999.0,-999,0.00,,,0.00,,2013-07-27 11:44:00,
2013-07-27 07:53:00,61.0,-99.9,-100.00,North,-999,-999.0,-999.0,-999,0.00,,,0.00,,2013-07-27 11:53:00,
2013-07-27 08:00:00,65.0,-99.9,-100.00,North,-999,-999.0,-999.0,-999,0.00,,,0.00,,2013-07-27 12:00:00,
2013-07-27 08:44:00,65.0,-99.9,-100.00,North,-999,-999.0,-999.0,-999,0.00,,,0.00,,2013-07-27 12:44:00,
2013-07-27 08:52:00,65.0,-99.9,-100.00,North,-999,-999.0,-999.0,-999,0.00,,,0.00,,2013-07-27 12:52:00,
2013-07-27 09:00:00,66.0,-99.9,-100.00,North,-999,-999.0,-999.0,-999,0.25,,,0.25,,2013-07-27 13:00:00,
2013-07-27 09:44:00,66.0,-99.9,-100.00,North,-999,-999.0,-999.0,-999,0.25,,,0.25,,2013-07-27 13:44:00,
2013-07-27 09:53:00,66.0,-99.9,-100.00,North,-999,-999.0,-999.0,-999,0.25,,,0.25,,2013-07-27 13:53:00,
2013-07-27 10:00:00,67.0,-99.9,-100.00,North,-999,-999.0,-999.0,-999,0.07,,,0.32,,2013-07-27 14:00:00,
2013-07-27 10:44:00,67.0,-99.9,-100.00,North,-999,-999.0,-999.0,-999,0.07,,,0.32,,2013-07-27 14:44:00,
2013-07-27 10:54:00,67.0,-99.9,-100.00,North,-999,-999.0,-999.0,-999,0.07,,,0.32,,2013-07-27 14:54:00,
2013-07-27 11:00:00,69.0,-99.9,-100.00,North,-999,-999.0,-999.0,-999,0.00,,,0.32,,2013-07-27 15:00:00,
2013-07-27 11:44:00,69.0,-99.9,-100.00,North,-999,-999.0,-999.0,-999,0.00,,,0.32,,2013-07-27 15:44:00,
2013-07-27 11:53:00,69.0,-99.9,-100.00,North,-999,-999.0,-999.0,-999,0.00,,,0.32,,2013-07-27 15:53:00,
2013-07-27 12:00:00,75.0,-99.9,-100.00,North,-999,-999.0,-999.0,-999,0.00,,,0.32,,2013-07-27 16:00:00,
2013-07-27 12:43:00,75.0,-99.9,-100.00,North,-999,-999.0,-999.0,-999,0.00,,,0.32,,2013-07-27 16:43:00,
2013-07-27 12:54:00,75.0,-99.9,-100.00,North,-999,-999.0,-999.0,-999,0.00,,,0.32,,2013-07-27 16:54:00,
2013-07-27 13:00:00,75.0,-99.9,-100.00,North,-999,-999.0,-999.0,-999,0.00,,,0.32,,2013-07-27 17:00:00,
2013-07-27 13:43:00,75.0,-99.9,-100.00,North,-999,-999.0,-999.0,-999,0.00,,,0.32,,2013-07-27 17:43:00,
2013-07-27 13:54:00,75.0,-99.9,-100.00,North,-999,-999.0,-999.0,-999,0.00,,,0.32,,2013-07-27 17:54:00,
2013-07-27 14:00:00,74.0,-99.9,-100.00,North,-999,-999.0,-999.0,-999,0.00,,,0.32,,2013-07-27 18:00:00,
2013-07-27 14:43:00,74.0,-99.9,-100.00,North,-999,-999.0,-999.0,-999,0.00,,,0.32,,2013-07-27 18:43:00,
2013-07-27 14:53:00,74.0,-99.9,-100.00,North,-999,-999.0,-999.0,-999,0.00,,,0.32,,2013-07-27 18:53:00,
2013-07-27 15:00:00,74.0,-99.9,-100.00,North,-999,-999.0,-999.0,-999,0.01,,,0.33,,2013-07-27 19:00:00,
2013-07-27 15:43:00,74.0,-99.9,-100.00,North,-999,-999.0,-999.0,-999,0.01,,,0.33,,2013-07-27 19:43:00,
2013-07-27 15:53:00,74.0,-99.9,-100.00,North,-999,-999.0,-999.0,-999,0.01,,,0.33,,2013-07-27 19:53:00,
2013-07-27 16:00:00,74.0,-99.9,-100.00,North,-999,-999.0,-999.0,-999,0.00,,,0.33,,2013-07-27 20:00:00,
2013-07-27 16:43:00,74.0,-99.9,-100.00,North,-999,-999.0,-999.0,-999,0.00,,,0.33,,2013-07-27 20:43:00,
2013-07-27 16:52:00,74.0,-99.9,-100.00,North,-999,-999.0,-999.0,-999,0.00,,,0.33,,2013-07-27 20:52:00,
2013-07-27 17:00:00,71.0,-99.9,-100.00,North,-999,-999.0,-999.0,-999,0.00,,,0.33,,2013-07-27 21:00:00,
2013-07-27 17:53:00,71.0,-99.9,-100.00,North,-999,-999.0,-999.0,-999,0.00,,,0.33,,2013-07-27 21:53:00,
2013-07-27 19:00:00,75.0,-99.9,-100.00,North,-999,-999.0,-999.0,-999,0.00,,,0.33,,2013-07-27 23:00:00,
2013-07-27 19:44:00,75.0,-99.9,-100.00,North,-999,-999.0,-999.0,-999,0.00,,,0.33,,2013-07-27 23:44:00,
2013-07-27 19:53:00,75.0,-99.9,-100.00,North,-999,-999.0,-999.0,-999,0.00,,,0.33,,2013-07-27 23:53:00,
2013-07-27 21:00:00,69.0,-99.9,-100.00,North,-999,-999.0,-999.0,-999,0.00,,,0.33,,2013-07-28 01:00:00,
2013-07-27 21:43:00,69.0,-99.9,-100.00,North,-999,-999.0,-999.0,-999,0.00,,,0.33,,2013-07-28 01:43:00,
2013-07-27 21:53:00,69.0,-99.9,-100.00,North,-999,-999.0,-999.0,-999,0.00,,,0.33,,2013-07-28 01:53:00,
2013-07-27 22:00:00,68.0,-99.9,-100.00,North,-999,-999.0,-999.0,-999,0.00,,,0.33,,2013-07-28 02:00:00,
2013-07-27 22:43:00,68.0,-99.9,-100.00,North,-999,-999.0,-999.0,-999,0.00,,,0.33,,2013-07-28 02:43:00,
2013-07-27 22:53:00,68.0,-99.9,-100.00,North,-999,-999.0,-999.0,-999,0.00,,,0.33,,2013-07-28 02:53:00,
2013-07-27 23:00:00,68.0,-99.9,-100.00,North,-999,-999.0,-999.0,-999,0.00,,,0.33,,2013-07-28 03:00:00,
2013-07-27 23:43:00,68.0,-99.9,-100.00,North,-999,-999.0,-999.0,-999,0.00,,,0.33,,2013-07-28 03:43:00,
2013-07-27 23:53:00,68.0,-99.9,-100.00,North,-999,-999.0,-999.0,-999,0.00,,,0.33,,2013-07-28 03:53:00,